Flag for Cambodia Weather past 2 weeks in Phnom Penh, Cambodia

Now
81 °F

Scattered clouds.


Feels Like: 86 °F
Forecast: 79 / 93 °F
Wind: 3 mph from Southwest

Location: Phnom-Penh / Pochentong

Current Time: Aug 30, 2015 at 7:10:15 AM

Latest Report: Aug 30, 2015 at 6:30 AM


Visibility: 6 mi

Pressure: 29.77 "Hg

Humidity: 84%

Dew point: 75 °F

Location of Phnom PenhLocation

Historic Weather in Phnom Penh — Graph

°F

Phnom Penh temperature yesterday

Maximum temperature yesterday: 95 °F (at 2:00 PM)
Minimum temperature yesterday: 77 °F (at 6:00 AM)
Average temperature yesterday: 85 °F

Past Weeks' High & Low Weather Summary

 TemperatureHumidityPressure
High97 °F (Aug 15, 3:30 PM)100% (Aug 27, 8:30 PM)29.86 "Hg (Aug 27, 8:30 PM)
Low75 °F (Aug 27, 8:30 PM)19% (Aug 24, 6:00 PM)29.62 "Hg (Aug 21, 3:30 PM)
Average86 °F70%29.75 "Hg
* Reported Aug 15 6:00 AM — Aug 30 6:00 AM, Phnom Penh, Weather by CustomWeather, © 2015

Note: Actual official high and low records may vary slightly from our data, if they occured in-between our weather recording intervals... More about our weather records

Advertising

Phnom Penh weather history for previous 24 hours

 ConditionsComfort  
Time TempWeatherWind HumidityBarometerVisibility
6:00 AM
Sun, Aug 30
79 °FScattered clouds.6 mph89%29.77 "Hg6 mi
1:00 AM81 °FPassing clouds.5 mph84%29.77 "Hg6 mi
12:30 AM81 °FPassing clouds.5 mph84%29.80 "Hg6 mi
12:00 AM82 °FPassing clouds.7 mph79%29.80 "Hg6 mi
11:30 PM
Sat, Aug 29
81 °FPassing clouds.6 mph84%29.80 "Hg6 mi
11:00 PM82 °FPassing clouds.5 mph79%29.80 "Hg6 mi
10:30 PM82 °FPassing clouds.3 mph79%29.80 "Hg6 mi
10:00 PM82 °FPassing clouds.5 mph79%29.80 "Hg6 mi
9:30 PM82 °FPassing clouds.8 mph79%29.80 "Hg6 mi
9:00 PM82 °FPassing clouds.7 mph79%29.80 "Hg6 mi
8:30 PM82 °FPassing clouds.7 mph79%29.77 "Hg6 mi
8:00 PM82 °FPassing clouds.5 mph79%29.74 "Hg6 mi
7:30 PM81 °FPassing clouds.5 mph89%29.74 "Hg6 mi
7:00 PM81 °FPassing clouds.3 mph84%29.74 "Hg6 mi
6:30 PM81 °FPartly cloudy.6 mph84%29.74 "Hg6 mi
6:00 PM82 °FBroken clouds.5 mph79%29.71 "Hg6 mi
5:00 PM82 °FBroken clouds.7 mph79%29.71 "HgN/A
4:00 PM88 °FBroken clouds.10 mph62%29.71 "HgN/A
3:30 PM88 °FPartly sunny.14 mph62%29.71 "HgN/A
2:30 PM91 °FScattered clouds.10 mph59%29.68 "HgN/A
2:00 PM95 °FScattered clouds.7 mph47%29.71 "HgN/A
1:00 PM93 °FScattered clouds.9 mph56%29.74 "HgN/A
12:30 PM93 °FScattered clouds.10 mph53%29.74 "HgN/A
12:00 PM91 °FScattered clouds.9 mph56%29.77 "HgN/A
11:30 AM91 °FScattered clouds.9 mph56%29.77 "HgN/A
11:00 AM91 °FScattered clouds.12 mph56%29.80 "HgN/A
10:30 AM90 °FScattered clouds.9 mph63%29.80 "HgN/A
10:00 AM88 °FScattered clouds.12 mph62%29.80 "HgN/A
9:30 AM88 °FScattered clouds.9 mph66%29.80 "HgN/A
9:00 AM86 °FScattered clouds.10 mph66%29.80 "HgN/A
8:30 AM84 °FScattered clouds.9 mph74%29.80 "HgN/A
8:00 AM82 °FPartly sunny.6 mph79%29.80 "HgN/A
7:30 AM82 °FPartly sunny.7 mph79%29.77 "HgN/A
7:00 AM81 °FScattered clouds.6 mph84%29.77 "HgN/A
Weather by CustomWeather, © 2015

See weather overviewHow to use our weather pages